#timestamp,LO_Frequency,Hit,StdDev 
1539414015.1,286047000.3,N
1539414035.9,286047002.6,N
1539414055.7,286047002.8,N
1539414075.6,286047002.2,N
1539414095.4,286046999.8,N
1539414115.2,286047000.5,N
1539414135.1,286047002.2,N
1539414136.0,286047002.2,N
1539414155.8,286046999.7,N
1539414175.7,286047002.8,N
1539414195.5,286047000.5,N
1539414215.3,286047000.2,N
1539414235.2,286046999.9,N
1539414255.0,286046999.9,N
1539414255.9,286046999.9,N
1539414275.8,286046998.2,N
1539414295.6,286046998.5,N
1539414315.4,286046999.3,N
1539414335.3,286046998.3,N
1539414355.1,286046998.1,N
1539414375.8,286046999.9,N
1539414395.7,286047001.9,N
1539414415.5,286047002.5,N
1539414435.4,286047002.2,N
1539414455.2,286047000.4,N
1539414475.0,286047000.3,N
1539414475.9,286047000.3,N
1539414495.8,286047000.6,N
1539414515.6,286047001.0,N
1539414535.4,286046998.5,N
1539414555.3,286046998.6,N
1539414575.1,286046998.4,N
1539414595.9,286046999.3,N
1539414615.7,286046999.5,N
1539414635.5,286047001.1,N
1539414655.4,286046998.4,N
1539414675.2,286046998.9,N
1539414695.0,286047000.7,N
1539414695.9,286047000.7,N
1539414715.8,286047000.8,N
1539414735.6,286046999.1,N
1539414755.5,286046999.5,N
1539414775.3,286046998.9,N
1539414795.1,286046998.7,N
1539414815.9,286047000.9,N
1539414835.0,286047000.3,N
1539414836.0,286047000.3,N
1539414855.8,286046999.7,N
1539414875.6,286047000.5,N
1539414895.5,286047000.7,N
1539414915.3,286047000.4,N
1539414935.1,286047001.0,N
1539414955.9,286046999.9,N
1539414975.7,286046999.7,N
1539414995.5,286047000.9,N
1539415015.4,286047000.7,N
1539415035.2,286046999.7,N
1539415055.1,286047000.2,N
1539415056.0,286047000.2,N
1539415075.8,286046998.1,N
1539415095.6,286046998.1,N
1539415115.5,286046998.8,N
1539415135.3,286046998.2,N
1539415155.1,286047000.7,N
1539415175.9,286046998.2,N
1539415195.7,286047001.2,N
1539415215.6,286047001.0,N
1539415235.4,286047000.8,N
1539415255.2,286046998.5,N
1539415275.1,286047001.0,N
1539415276.0,286047001.0,N
1539415295.8,286047000.2,N
1539415315.7,286046999.8,N
1539415335.5,286047000.1,N
1539415355.3,286047000.4,N
1539415375.2,286047000.3,N
1539415395.0,286047000.1,N
1539415395.9,286047000.1,N
1539415415.8,286047000.7,N
1539415435.6,286047000.8,N
1539415455.4,286046998.5,N
1539415475.3,286047001.1,N
1539415495.1,286046998.5,N
1539415515.9,286046998.1,N
1539415535.7,286047002.3,N
1539415555.5,286047004.5,Y
1539415575.4,286047019.3,P
1539415595.2,286047023.3,N
1539415615.1,286047023.1,N
1539415616.0,286047023.1,N
1539415665.8,286047012.5,E
1539415675.7,286047006.2,N
1539415695.6,286046996.8,P
1539415715.4,286046998.0,N
1539415735.3,286046995.7,N
1539415755.1,286046993.6,N
1539415756.0,286046993.6,N
1539415775.8,286046993.8,N
1539415795.7,286046992.6,N
1539415815.5,286046992.5,N
1539415835.3,286046992.0,N
1539415855.2,286046990.1,N
1539415875.0,286046988.9,N
1539415875.9,286046988.9,N
1539415895.8,286046988.6,N
1539415915.6,286046987.1,N
1539415935.4,286046989.6,N
1539415955.3,286046990.0,N
1539415975.1,286046987.3,N
1539415976.0,286046987.3,N
1539415995.8,286046987.3,N
1539416015.7,286046986.9,N
1539416035.5,286046987.8,N
1539416055.4,286046987.5,N
1539416075.2,286046989.7,N
1539416095.0,286046990.0,N
1539416095.9,286046990.0,N
1539416115.8,286046989.9,N
1539416135.6,286046989.6,N
1539416155.4,286046989.8,N
1539416175.3,286046989.5,N
1539416195.1,286046988.3,N
1539416215.9,286046988.1,Y
1539416235.7,286046997.2,P
1539416255.5,286046997.8,N
1539416275.4,286046997.9,N
1539416295.2,286046997.9,N
1539416315.1,286046997.9,N
1539416316.0,286046997.9,N
1539416335.8,286046995.4,N
1539416355.6,286046997.4,N
1539416375.5,286046997.5,N
1539416395.3,286046995.0,N
1539416415.1,286046997.8,N
1539416435.9,286046997.6,N
1539416455.7,286046997.7,N
1539416475.6,286046998.0,N
1539416495.4,286046994.9,N
1539416515.2,286046995.3,N
1539416535.1,286046995.8,N
1539416536.0,286046995.8,N
1539416555.8,286047011.9,Y
1539416575.7,286046998.7,P
1539416595.5,286046998.3,N
1539416615.3,286046998.7,N
1539416635.2,286047001.2,N
1539416655.9,286046998.6,N
1539416675.7,286047001.0,N
1539416695.6,286047000.4,N
1539416715.4,286047000.7,N
1539416735.3,286047000.5,N
1539416755.1,286047000.9,N
1539416756.0,286047000.9,N
1539416775.8,286047002.8,N
1539416795.7,286047003.9,N
1539416815.5,286047004.1,N
1539416835.3,286047004.1,N
1539416855.2,286047003.6,N
1539416875.0,286047003.1,N
1539416875.9,286047003.1,N
1539416895.8,286047005.9,N
1539416915.6,286047004.6,N
1539416935.4,286047003.3,N
1539416955.3,286047003.4,N
1539416975.1,286047002.9,N
1539416995.9,286047004.8,N
1539417015.7,286047004.7,N
1539417035.5,286047007.4,Y
1539417055.4,286047003.3,P
1539417075.2,286047006.0,P
1539417095.1,286047005.1,P
1539417096.0,286047005.1,Y
1539417115.8,286047002.3,P
1539417135.6,286047000.0,N
1539417155.5,286047000.0,N
1539417175.3,286046998.2,N
1539417195.1,286046998.1,N
1539417215.9,286046999.0,N
1539417235.7,286046996.8,N
1539417255.6,286046998.4,N
1539417275.4,286047000.7,N
1539417295.2,286046999.4,N
1539417315.1,286046999.0,N
1539417316.0,286046999.0,N
1539417335.8,286046997.8,N
1539417355.6,286047000.7,N
1539417375.5,286046999.3,N
1539417395.3,286046999.0,N
1539417415.2,286047000.8,N
1539417435.9,286047000.0,N
1539417455.7,286046998.2,N
1539417475.6,286046998.3,N
1539417495.4,286047001.1,N
1539417515.2,286046999.1,N
1539417535.1,286046997.4,N
1539417536.0,286046997.4,N
1539417555.8,286046997.4,N
1539417575.7,286046995.3,N
1539417595.5,286046997.8,N
